Weather History for KPHP - March, 2013

Change the Weather History Date:

Sunday, March 31, 2013

  Actual Average Record
Temperature  
Mean Temperature 37 °F 40 °F  
Max Temperature 48 °F 54 °F 83 °F (2012)
Min Temperature 26 °F 27 °F 9 °F (1977)
Degree Days  
Heating Degree Days 28 24  
Month to date heating degree days 955 937  
Since 1 July heating degree days 5981 6303  
Cooling Degree Days 0 0  
Month to date cooling degree days 0 0  
Year to date cooling degree days 0 0  
Moisture  
Dew Point 25 °F    
Average Humidity 60    
Maximum Humidity 92    
Minimum Humidity 28    
Precipitation  
Precipitation T in 0.04 in 0.51 in (1979)
Month to date precipitation 0.40 1.27  
Year to date precipitation 1.22 2.05  
Sea Level Pressure  
Sea Level Pressure 30.13 in    
Wind  
Wind Speed 9 mph (NNE)    
Max Wind Speed 22 mph    
Max Gust Speed 28 mph    
Visibility 10 miles    
Events Snow    
T = Trace of Precipitation, MM = Missing Value Source: NWS Daily Summary

Daily Weather History Graph

Daily Weather History Graph

Search for Another Location

Airport or City:

Trip Planner

Search our weather history database for the weather conditions in past years. The results will help you decide how hot, cold, wet, or windy it might be!

Date:

Astronomy

Mar. 31, 2013 Rise Set
Actual Time 6:28 AM MDT 7:12 PM MDT
Civil Twilight 5:59 AM MDT 7:41 PM MDT
Nautical Twilight 5:25 AM MDT 8:16 PM MDT
Astronomical Twilight 4:49 AM MDT 8:52 PM MDT
Moon No Moon Rise 9:09 AM MDT (3/31)
Length of Visible Light 13h 41m
Length of Day
12h 43m
Waning Gibbous, 77% of the Moon is Illuminated
Mar 31
Waning Gibbous
Apr 2
Last Quarter
Apr 10
New
Apr 18
First Quarter
Apr 25
Full

Hourly Weather History & Observations

Time (MDT) Temp. Windchill Dew Point Humidity Pressure Visibility Wind Dir Wind Speed Gust Speed Precip Events Conditions
12:55 AM 34.0 °F 27.2 °F 28.9 °F 82% 30.11 in 10.0 mi WNW 8.1 mph - N/A   Clear
1:55 AM 33.1 °F 25.5 °F 28.9 °F 85% 30.10 in 10.0 mi West 9.2 mph - N/A   Clear
2:55 AM 32.0 °F 28.7 °F 28.0 °F 85% 30.07 in 10.0 mi West 3.5 mph - N/A   Clear
3:55 AM 32.0 °F 26.4 °F 28.0 °F 85% 30.06 in 10.0 mi West 5.8 mph - N/A   Clear
4:55 AM 30.9 °F 24.3 °F 28.0 °F 89% 30.05 in 10.0 mi WSW 6.9 mph - N/A   Clear
5:55 AM 28.9 °F 22.8 °F 27.0 °F 92% 30.04 in 10.0 mi West 5.8 mph - N/A   Overcast
6:55 AM 30.0 °F 25.2 °F 28.0 °F 92% 30.04 in 10.0 mi West 4.6 mph - N/A   Scattered Clouds
7:55 AM 35.1 °F - 30.9 °F 85% 30.05 in 10.0 mi Calm Calm - N/A   Overcast
8:55 AM 43.0 °F 36.8 °F 27.0 °F 53% 30.04 in 10.0 mi ENE 11.5 mph - N/A   Clear
9:55 AM 43.0 °F 36.4 °F 21.0 °F 42% 30.03 in 10.0 mi East 12.7 mph - N/A   Mostly Cloudy
10:55 AM 45.0 °F 38.5 °F 21.9 °F 40% 30.03 in 10.0 mi East 13.8 mph - N/A   Overcast
11:55 AM 45.0 °F 39.3 °F 18.0 °F 34% 30.04 in 10.0 mi ENE 11.5 mph 18.4 mph N/A   Overcast
12:55 PM 46.9 °F - 16.0 °F 29% 30.05 in 10.0 mi East 13.8 mph 20.7 mph N/A   Overcast
1:55 PM 46.9 °F - 16.0 °F 29% 30.06 in 10.0 mi East 11.5 mph 20.7 mph N/A   Mostly Cloudy
2:55 PM 46.0 °F 38.5 °F 17.1 °F 31% 30.08 in 10.0 mi NE 19.6 mph 24.2 mph N/A   Scattered Clouds
3:55 PM 46.9 °F - 23.0 °F 39% 30.09 in 10.0 mi NE 16.1 mph 24.2 mph N/A   Mostly Cloudy
4:55 PM 39.0 °F 30.6 °F 28.0 °F 65% 30.14 in 10.0 mi NNE 15.0 mph - N/A   Overcast
5:55 PM 35.1 °F 26.4 °F 27.0 °F 72% 30.18 in 10.0 mi NE 12.7 mph - N/A   Overcast
6:30 PM 33.8 °F 25.3 °F 26.6 °F 75% 30.15 in 10.0 mi NNE 11.5 mph - N/A   Overcast
6:55 PM 34.0 °F 25.0 °F 27.0 °F 75% 30.21 in 10.0 mi NNE 12.7 mph - N/A   Overcast
7:04 PM 33.8 °F 24.8 °F 26.6 °F 75% 30.15 in 10.0 mi NNE 12.7 mph - N/A   Overcast
7:21 PM 33.8 °F 25.3 °F 26.6 °F 75% 30.17 in 10.0 mi NE 11.5 mph - N/A   Overcast
7:55 PM 32.0 °F 24.2 °F 27.0 °F 82% 30.23 in 9.0 mi NNE 9.2 mph - 0.00 in Snow Light Snow
8:46 PM 32.0 °F 24.8 °F 26.6 °F 80% 30.20 in 10.0 mi North 8.1 mph - 0.00 in   Overcast
8:55 PM 32.0 °F 24.2 °F 27.0 °F 82% 30.25 in 10.0 mi North 9.2 mph - 0.00 in   Overcast
9:55 PM 28.9 °F 22.8 °F 25.0 °F 85% 30.26 in 10.0 mi NNE 5.8 mph - N/A   Partly Cloudy
10:47 PM 28.4 °F - 24.8 °F 86% 30.21 in 10.0 mi Calm Calm - N/A   Overcast
10:55 PM 28.0 °F - 25.0 °F 88% 30.26 in 10.0 mi Calm Calm - N/A   Overcast
11:27 PM 28.4 °F - 26.6 °F 93% 30.22 in 10.0 mi Calm Calm - N/A   Overcast
11:45 PM 30.2 °F - 26.6 °F 86% 30.22 in 10.0 mi Calm Calm - N/A   Overcast
11:55 PM 30.0 °F - 26.1 °F 85% 30.27 in 10.0 mi Calm Calm - N/A   Overcast